Location: *
(51.0333°S, 178.4667°E)
Time: 23:29:09
(UTC+00:00)

Meteor 1-20 Rocket - Pass Details

Date: 15 November 2019
Orbit: 820 x 891 km, 81.2° (Epoch: 14 December)

Event Time Altitude Azimuth Distance (km) Brightness Sun altitude
Rises 08:20:22 0° 1° (N) 3,425 7.0 -6.7°
Reaches altitude 10° 08:22:49 10° 4° (N) 2,486 6.2 -7.0°
Maximum altitude 08:28:22 62° 83° (E) 957 4.3 -7.6°
Drops below altitude 10° 08:33:53 10° 162° (SSE) 2,475 7.0 -8.3°
Sets 08:36:19 0° 165° (SSE) 3,408 7.8 -8.5°
